Terminal Aerodrome Forecast
Issued by NWS Charleston, WV

Current Version | Previous Version | Text Only | Print | Product List | Glossary Off
Versions: 1 2 3 4 5 6 7 8 9 10 11 12 13 14 15 16 17 18 19 20 21

829
FTUS41 KRLX 240543
TAFCRW
TAF
KCRW 240543Z 2406/2506 00000KT 4SM BR SCT001
     FM240900 00000KT 1SM BR BKN001
     FM241200 00000KT 4SM BR FEW001 SCT200
     FM241300 15003KT P6SM SCT150
     FM241800 19005KT P6SM BKN070
     FM250000 15002KT P6SM BKN150
     FM250300 00000KT P6SM SCT150=

USA.gov is the U.S. government's official web portal to all federal, state and local government web resources and services.